[[{"header":{"parameterUnit":"m.s-1","parameterCategory":1,"la1":30.2991,"la2":30.254,"lo1":-89.0895,"lo2":-89.0444,"dy":0.0017,"dx":0.0017,"nx":28,"ny":28,"refTime":"2026-01-30T09:00:00:Z","depth":0,"parameterNumber":2,"parameterNumberName":"U-component_of_WINDS"},"data":[0,0,0,0,0,0,0,0,0,0,0,0,0,0,0,0,0,0,0,0,0,0,0,0,0,0,0,0,0,0,0,0,0,0,0,0,0,0,0,0,0,0,0,0,0,0,0,0,0,0,0,0,0,0,0,0,0,0,-0.9527,-0.9527,0,-0.9596,-0.9597,-0.9598,-0.963,-0.963,-0.963,-0.963,-0.9702,-0.9704,-0.9706,0,0,0,0,0,0,0,0,0,0,0,0,0,-0.9421,-0.9423,-0.9526,-0.9527,-0.9528,-0.9596,-0.9597,-0.9598,-0.963,-0.963,-0.963,-0.963,-0.9702,-0.9704,-0.9706,0,0,0,0,0,0,0,0,0,0,0,0,0,-0.9476,-0.9423,-0.9526,-0.9553,-0.9556,-0.9596,-0.9597,-0.9598,-0.963,-0.963,-0.963,-0.963,-0.9701,-0.9704,-0.9707,-0.9726,0,0,-0.9716,-0.9717,0,0,0,0,0,0,0,0,-0.9473,-0.948,-0.9548,-0.9551,-0.9554,-0.9604,-0.9586,-0.9641,-0.963,-0.9602,-0.963,-0.963,-0.967,-0.9675,-0.9689,-0.9729,-0.9733,-0.9716,-0.9718,-0.9719,-0.972,0,0,0,0,0,0,0,-0.9469,-0.9477,-0.9554,-0.9549,-0.9553,-0.9561,-0.9568,-0.9597,-0.9635,-0.9605,-0.9607,-0.9615,-0.9672,-0.9686,-0.969,-0.9734,-0.9716,-0.9718,-0.972,-0.9721,-0.9791,-0.9791,0,0,0,0,0,0,-0.9461,-0.9474,-0.9552,-0.9556,-0.9513,-0.9563,-0.9571,-0.9588,-0.9635,-0.9642,-0.9615,-0.9616,-0.9681,-0.9687,-0.9693,-0.9718,-0.9719,-0.9722,-0.9723,-0.9791,-0.9791,-0.9792,0,0,0,0,0,0,-0.9459,-0.9468,-0.9549,-0.9516,-0.9527,-0.9564,-0.9583,-0.959,-0.9604,-0.9643,-0.965,-0.9622,-0.9681,-0.9689,-0.9717,-0.9721,-0.9723,-0.9726,-0.9791,-0.9791,-0.9791,-0.9767,0,0,0,0,0,0,-0.9456,-0.9467,-0.9475,-0.9516,-0.9528,-0.9572,-0.9584,-0.9591,-0.9609,-0.9611,-0.9652,-0.9658,-0.9681,-0.9712,-0.972,-0.9725,-0.9728,-0.9791,-0.9791,-0.9791,-0.9768,-0.9767,-0.9765,0,0,0,0,0,-0.9452,-0.9466,-0.9475,-0.9484,-0.9539,-0.9572,-0.9579,-0.9605,-0.9609,-0.9617,-0.9642,-0.9657,-0.9719,-0.9715,-0.9724,-0.9729,-0.9791,-0.9791,-0.9791,-0.9768,-0.9767,-0.9765,0,0,0,0,0,0,-0.9426,-0.9472,-0.9483,-0.9511,-0.9537,-0.9578,-0.9589,-0.9603,-0.963,-0.9631,-0.9662,-0.9671,-0.9696,-0.9716,-0.971,-0.9749,-0.9756,-0.9758,-0.9736,-0.9734,-0.9733,-0.9728,-0.973,0,0,0,0,0,-0.9423,-0.9446,-0.9485,-0.9506,-0.9519,-0.9551,-0.9567,-0.9584,-0.9613,-0.9625,-0.9651,-0.9679,-0.9704,-0.9721,-0.9746,-0.9771,-0.9779,-0.9779,-0.9777,-0.9776,-0.9777,-0.979,-0.979,-0.9792,-0.9792,-0.9792,0,0,-0.9418,-0.9446,-0.9459,-0.9501,-0.9524,-0.9546,-0.9561,-0.9584,-0.9601,-0.9628,-0.9656,-0.9676,-0.9709,-0.9735,-0.9747,-0.9752,-0.9778,-0.9776,-0.9775,-0.9777,-0.979,-0.979,-0.9789,-0.9792,-0.9792,-0.9792,0,0,-0.9421,-0.9445,-0.9464,-0.9486,-0.9519,-0.954,-0.9545,-0.9583,-0.9597,-0.9625,-0.9645,-0.9665,-0.9709,-0.9731,-0.9747,-0.9755,-0.9769,-0.9762,-0.9756,-0.9768,-0.9767,-0.9767,-0.9769,-0.9769,-0.9764,-0.9764,-0.9764,0,-0.9411,-0.9446,-0.9472,-0.9494,-0.9511,-0.9535,-0.9554,-0.9574,-0.9615,-0.9626,-0.963,-0.9684,-0.9708,-0.9738,-0.9739,-0.9752,-0.9757,-0.9758,-0.9765,-0.9766,-0.9766,-0.9768,-0.9768,-0.9762,-0.9763,-0.9763,-0.9763,0,-0.9431,-0.9454,-0.9465,-0.9502,-0.9521,-0.9542,-0.957,-0.9586,-0.9601,-0.9621,-0.9648,-0.9677,-0.9708,-0.9717,-0.9733,-0.9749,-0.975,-0.9759,-0.9767,-0.9764,-0.9766,-0.9767,-0.9761,-0.9761,-0.9762,-0.9762,0,0,-0.942,-0.947,-0.9474,-0.949,-0.9527,-0.9546,-0.9566,-0.9596,-0.9608,-0.9635,-0.9652,-0.9687,-0.9695,-0.9714,-0.9732,-0.9742,-0.9744,-0.975,-0.9751,-0.9747,-0.9762,-0.9754,-0.9755,-0.9754,-0.9754,-0.9754,-0.9759,0,-0.9428,-0.9466,-0.9489,-0.9517,-0.9538,-0.956,-0.9578,-0.9603,-0.9622,-0.9642,-0.9663,-0.9687,-0.9696,-0.9707,-0.9719,-0.9741,-0.9747,-0.9742,-0.9769,-0.977,-0.976,-0.9756,-0.9749,-0.9752,-0.976,-0.976,-0.976,0,-0.9442,-0.9466,-0.9496,-0.9529,-0.9539,-0.9554,-0.9582,-0.9601,-0.9629,-0.9642,-0.9661,-0.9679,-0.9701,-0.9706,-0.9735,-0.973,-0.9743,-0.9755,-0.9756,-0.976,-0.9765,-0.9759,-0.9753,-0.9753,-0.9762,-0.9762,-0.9762,0,-0.9429,-0.947,-0.9493,-0.9506,-0.9546,-0.9556,-0.9572,-0.96,-0.9615,-0.9639,-0.965,-0.9676,-0.969,-0.971,-0.9734,-0.9735,-0.976,-0.9767,-0.9771,-0.977,-0.9775,-0.9774,-0.9771,-0.9784,-0.9784,-0.9784,-0.9784,0,-0.9435,-0.9452,-0.9488,-0.9502,-0.9521,-0.9547,-0.9565,-0.9584,-0.9608,-0.9625,-0.9646,-0.9662,-0.9692,-0.9711,-0.973,-0.975,-0.9757,-0.9767,-0.9772,-0.9765,-0.9764,-0.9774,-0.9774,-0.9784,-0.9784,-0.9784,-0.9784,0,-0.9425,-0.945,-0.9476,-0.951,-0.9519,-0.9532,-0.9561,-0.9575,-0.9594,-0.9616,-0.9622,-0.9652,-0.9676,-0.9701,-0.9733,-0.9746,-0.9765,-0.9772,-0.9755,-0.9758,-0.9759,-0.9758,-0.9762,-0.9763,-0.9775,-0.9775,-0.9775,0,-0.9427,-0.9441,-0.9476,-0.9489,-0.9505,-0.9525,-0.9541,-0.9566,-0.9581,-0.9612,-0.9621,-0.9646,-0.9667,-0.9703,-0.9728,-0.9752,-0.9759,-0.9759,-0.9763,-0.9755,-0.9758,-0.9757,-0.9758,-0.9758,-0.9757,-0.9757,-0.9757,0,-0.9427,-0.9438,-0.9459,-0.9484,-0.9501,-0.9522,-0.9544,-0.9553,-0.9583,-0.9598,-0.9622,-0.9638,-0.967,-0.9694,-0.972,-0.9737,-0.9751,-0.9755,-0.9757,-0.975,-0.974,-0.9744,-0.9751,-0.9755,-0.9755,-0.9755,-0.9756,-0.9756,-0.9423,-0.9435,-0.9461,-0.9484,-0.9502,-0.9521,-0.9535,-0.9555,-0.9575,-0.9603,-0.9616,-0.9639,-0.9664,-0.9702,-0.9718,-0.9736,-0.974,-0.9743,-0.9744,-0.9744,-0.9742,-0.9737,-0.9741,-0.9741,-0.9741,-0.9741,-0.9741,0,-0.9423,-0.944,-0.9461,-0.949,-0.9507,-0.9518,-0.9542,-0.9555,-0.9575,-0.9597,-0.9617,-0.9643,-0.9665,-0.969,-0.9714,-0.9723,-0.973,-0.9729,-0.9728,-0.9731,-0.9737,-0.9732,-0.9723,-0.9723,-0.9723,-0.9723,-0.9723,-0.9723,-0.9426,-0.9446,-0.946,-0.9489,-0.9506,-0.9529,-0.9541,-0.9558,-0.9576,-0.9604,-0.9622,-0.9638,-0.9661,-0.9686,-0.9707,-0.9713,-0.9721,-0.9717,-0.9725,-0.973,-0.9731,-0.9733,-0.9729,-0.9718,-0.9718,-0.9719,-0.9719,-0.9719]},{"header":{"parameterUnit":"m.s-1","parameterCategory":1,"la1":30.2991,"la2":30.254,"lo1":-89.0895,"lo2":-89.0444,"dy":0.0017,"dx":0.0017,"nx":28,"ny":28,"refTime":"2026-01-30T09:00:00:Z","depth":0,"parameterNumber":3,"parameterNumberName":"V-component_of_WINDS"},"data":[0,0,0,0,0,0,0,0,0,0,0,0,0,0,0,0,0,0,0,0,0,0,0,0,0,0,0,0,0,0,0,0,0,0,0,0,0,0,0,0,0,0,0,0,0,0,0,0,0,0,0,0,0,0,0,0,0,0,-1.4728,-1.4728,0,-1.4766,-1.4767,-1.4767,-1.4771,-1.477,-1.477,-1.477,-1.4806,-1.4808,-1.4809,0,0,0,0,0,0,0,0,0,0,0,0,0,-1.4655,-1.4656,-1.4728,-1.4728,-1.4729,-1.4766,-1.4767,-1.4767,-1.4771,-1.477,-1.477,-1.477,-1.4806,-1.4808,-1.4809,0,0,0,0,0,0,0,0,0,0,0,0,0,-1.4689,-1.4657,-1.4728,-1.4735,-1.4736,-1.4766,-1.4767,-1.4768,-1.4771,-1.477,-1.477,-1.4769,-1.4805,-1.4807,-1.4809,-1.4834,0,0,-1.4816,-1.4816,0,0,0,0,0,0,0,0,-1.4687,-1.4692,-1.4734,-1.4735,-1.4736,-1.4763,-1.4755,-1.479,-1.4771,-1.4758,-1.477,-1.4769,-1.4792,-1.4795,-1.4804,-1.4835,-1.4837,-1.4816,-1.4817,-1.4818,-1.4818,0,0,0,0,0,0,0,-1.4685,-1.469,-1.4743,-1.4734,-1.4736,-1.4736,-1.474,-1.4761,-1.4778,-1.4759,-1.4759,-1.4764,-1.4793,-1.4802,-1.4805,-1.4838,-1.4816,-1.4818,-1.4819,-1.482,-1.489,-1.4891,0,0,0,0,0,0,-1.4681,-1.4688,-1.4742,-1.4744,-1.471,-1.4738,-1.4742,-1.4755,-1.4778,-1.4781,-1.4764,-1.4764,-1.4799,-1.4802,-1.4806,-1.4835,-1.4818,-1.482,-1.4821,-1.4889,-1.489,-1.4891,0,0,0,0,0,0,-1.468,-1.4686,-1.474,-1.4716,-1.4723,-1.4739,-1.4754,-1.4756,-1.4765,-1.4782,-1.4785,-1.4771,-1.4798,-1.4803,-1.4827,-1.4837,-1.4821,-1.4822,-1.4889,-1.489,-1.4891,-1.4894,0,0,0,0,0,0,-1.4678,-1.4686,-1.4696,-1.4717,-1.4725,-1.4761,-1.4754,-1.4757,-1.4769,-1.4769,-1.4788,-1.4791,-1.4798,-1.4824,-1.4829,-1.4839,-1.4824,-1.4888,-1.4889,-1.489,-1.4893,-1.4895,-1.4897,0,0,0,0,0,-1.4675,-1.4695,-1.4696,-1.4703,-1.4738,-1.4762,-1.4766,-1.4775,-1.477,-1.4779,-1.479,-1.4791,-1.4835,-1.4826,-1.4832,-1.4843,-1.4887,-1.4889,-1.489,-1.4892,-1.4895,-1.4897,0,0,0,0,0,0,-1.4674,-1.4698,-1.4699,-1.4727,-1.4742,-1.4762,-1.4775,-1.4777,-1.4794,-1.4793,-1.4802,-1.4807,-1.483,-1.4839,-1.4829,-1.4867,-1.486,-1.4863,-1.486,-1.4863,-1.4864,-1.4861,-1.4826,0,0,0,0,0,-1.4677,-1.4695,-1.4715,-1.4737,-1.4745,-1.4759,-1.4769,-1.4775,-1.4791,-1.4797,-1.481,-1.4825,-1.4842,-1.4853,-1.487,-1.4895,-1.4899,-1.4905,-1.4907,-1.4909,-1.491,-1.4923,-1.4926,-1.4896,-1.4896,-1.4896,0,0,-1.4683,-1.4698,-1.4709,-1.4737,-1.475,-1.4768,-1.4764,-1.4783,-1.4796,-1.48,-1.4823,-1.4833,-1.485,-1.4874,-1.4885,-1.4882,-1.492,-1.491,-1.4911,-1.4913,-1.4925,-1.4928,-1.4931,-1.4897,-1.4897,-1.4897,0,0,-1.4703,-1.4717,-1.4736,-1.4749,-1.4769,-1.4778,-1.4783,-1.4803,-1.4809,-1.4833,-1.4836,-1.4851,-1.4881,-1.4893,-1.4903,-1.4927,-1.4928,-1.4932,-1.4941,-1.4954,-1.4956,-1.4958,-1.4966,-1.4969,-1.4934,-1.4934,-1.4935,0,-1.4707,-1.4735,-1.4746,-1.4765,-1.4777,-1.4782,-1.4801,-1.4813,-1.4837,-1.4844,-1.4841,-1.4878,-1.489,-1.4917,-1.4923,-1.4931,-1.4936,-1.493,-1.4955,-1.4958,-1.496,-1.4967,-1.497,-1.4935,-1.4935,-1.4935,-1.4935,0,-1.474,-1.4759,-1.4772,-1.4796,-1.4809,-1.4828,-1.4841,-1.4853,-1.4857,-1.4866,-1.4889,-1.4904,-1.4924,-1.4931,-1.4935,-1.4958,-1.4955,-1.4954,-1.4947,-1.4963,-1.497,-1.4973,-1.4935,-1.4935,-1.4935,-1.4935,0,0,-1.4759,-1.4788,-1.4793,-1.4803,-1.4826,-1.484,-1.4859,-1.4879,-1.4889,-1.4905,-1.4921,-1.4946,-1.4944,-1.4956,-1.4961,-1.4972,-1.499,-1.4969,-1.497,-1.4972,-1.5015,-1.5015,-1.5018,-1.4991,-1.4991,-1.4992,-1.5013,0,-1.478,-1.4815,-1.4825,-1.4854,-1.4872,-1.4877,-1.4893,-1.4908,-1.4917,-1.4932,-1.4942,-1.4959,-1.4957,-1.4964,-1.4975,-1.4985,-1.4998,-1.4984,-1.5004,-1.5004,-1.4998,-1.5022,-1.5023,-1.5042,-1.5016,-1.5016,-1.5017,0,-1.481,-1.4828,-1.4859,-1.4878,-1.4886,-1.4901,-1.4919,-1.4935,-1.4951,-1.4957,-1.497,-1.4974,-1.4993,-1.4986,-1.5012,-1.5002,-1.5011,-1.5017,-1.5018,-1.5019,-1.5011,-1.5023,-1.5048,-1.5051,-1.5021,-1.5021,-1.5021,0,-1.482,-1.4851,-1.4873,-1.4882,-1.4906,-1.4916,-1.4926,-1.4942,-1.4954,-1.497,-1.4977,-1.4995,-1.5005,-1.5018,-1.5027,-1.5021,-1.5051,-1.5046,-1.5056,-1.5055,-1.5061,-1.506,-1.5087,-1.5068,-1.5068,-1.5068,-1.5068,0,-1.4842,-1.486,-1.4878,-1.4892,-1.4912,-1.4923,-1.4943,-1.4953,-1.4967,-1.4982,-1.4988,-1.5002,-1.5013,-1.5028,-1.5035,-1.5055,-1.5059,-1.5063,-1.5065,-1.5062,-1.5062,-1.5067,-1.5066,-1.5069,-1.5069,-1.5069,-1.5069,0,-1.4856,-1.4868,-1.4893,-1.4914,-1.4919,-1.4933,-1.495,-1.4963,-1.4973,-1.4992,-1.4997,-1.5011,-1.5029,-1.504,-1.5062,-1.5067,-1.5088,-1.509,-1.5083,-1.5083,-1.5092,-1.5091,-1.5123,-1.5127,-1.5107,-1.5107,-1.5107,0,-1.4868,-1.4883,-1.4905,-1.4916,-1.4927,-1.4944,-1.4956,-1.4967,-1.4979,-1.4999,-1.5009,-1.5028,-1.5043,-1.5071,-1.5083,-1.51,-1.5101,-1.5111,-1.5104,-1.51,-1.51,-1.5099,-1.51,-1.5112,-1.5112,-1.5112,-1.5112,0,-1.489,-1.4895,-1.4912,-1.4932,-1.4946,-1.4961,-1.4977,-1.4985,-1.4999,-1.5011,-1.503,-1.5042,-1.5066,-1.5083,-1.5102,-1.5111,-1.5113,-1.5115,-1.5118,-1.5115,-1.511,-1.5112,-1.5085,-1.5114,-1.5114,-1.5114,-1.5113,-1.5113,-1.4902,-1.4915,-1.4933,-1.4952,-1.4965,-1.4979,-1.4992,-1.5004,-1.502,-1.504,-1.5046,-1.5065,-1.5081,-1.5106,-1.5115,-1.513,-1.5128,-1.5133,-1.5134,-1.5135,-1.5135,-1.5109,-1.5134,-1.5134,-1.5134,-1.5134,-1.5134,0,-1.4923,-1.4935,-1.4952,-1.4974,-1.4988,-1.4991,-1.5008,-1.502,-1.5037,-1.5052,-1.5067,-1.5089,-1.5106,-1.512,-1.5137,-1.5146,-1.5148,-1.515,-1.5149,-1.5151,-1.5136,-1.5131,-1.5149,-1.5149,-1.5149,-1.5149,-1.5149,-1.5149,-1.4935,-1.4957,-1.4965,-1.4992,-1.5004,-1.5024,-1.5033,-1.5046,-1.5058,-1.5082,-1.5097,-1.5106,-1.512,-1.5139,-1.5154,-1.5158,-1.5163,-1.5166,-1.5169,-1.5154,-1.5152,-1.5151,-1.5146,-1.5167,-1.5167,-1.5183,-1.5183,-1.5183]}]]